Hourly Data Report for October 11, 2014

All times are specified in Local Standard Time (LST). Add 1 hour to adjust for Daylight Saving Time where and when it is observed.

KAMLOOPS A
BRITISH COLUMBIA

50°42'09.000" N
120°26'55.000" W
345.30 m
1163781
71887
YKA

Download Data

Hourly Data (October 2014)
Hourly Data Report for October 11, 2014
Temp Definition
°C
Dew Point Temp Definition
°C
Rel Hum Definition
%
Wind Dir Definition
10's deg

Wind Spd Definition
km/h
Visibility Definition
km
Stn Press Definition
kPa
Hmdx Definition


Wind Chill Definition


Weather Definition


TIME
00:00 Legend Double Dagger 14.3 5.5 55 13 9 64.4 97.00     LegendNANA
01:00 Legend Double Dagger 10.9 5.5 69 15 4 64.4 97.00     Clear
02:00 Legend Double Dagger 9.5 4.3 70 36 1 64.4 96.98     LegendNANA
03:00 Legend Double Dagger 7.4 4.2 80 36 3 64.4 96.95     LegendNANA
04:00 Legend Double Dagger 6.3 3.5 82 17 4 64.4 96.99     Mainly Clear
05:00 Legend Double Dagger 6.1 2.9 80 36 5 64.4 97.02     LegendNANA
06:00 Legend Double Dagger 5.2 2.7 84 13 6 64.4 97.04     LegendNANA
07:00 Legend Double Dagger 7.9 4.5 79 36 3 64.4 97.08     Mostly Cloudy
08:00 Legend Double Dagger 9.0 4.5 73 27 5 64.4 97.08     LegendNANA
09:00 Legend Double Dagger 10.3 5.1 70 29 7 64.4 97.08     LegendNANA
10:00 Legend Double Dagger 11.2 5.1 66 36 2 64.4 97.03     Cloudy
11:00 Legend Double Dagger 12.0 4.8 61 27 6 64.4 97.03     LegendNANA
12:00 Legend Double Dagger 13.1 5.8 61 26 7 64.4 97.01     LegendNANA
13:00 Legend Double Dagger 14.6 5.5 54 22 5 64.4 96.99     Mostly Cloudy
14:00 Legend Double Dagger 16.2 5.6 49 20 8 64.4 96.94     LegendNANA
15:00 Legend Double Dagger 17.3 5.4 45 18 6 64.4 96.89     LegendNANA
16:00 Legend Double Dagger 17.9 3.9 39 28 7 64.4 96.91     Mostly Cloudy
17:00 Legend Double Dagger 14.3 3.2 47 11 6 64.4 97.03     LegendNANA
18:00 Legend Double Dagger 11.9 2.9 54 7 4 64.4 97.10     LegendNANA
19:00 Legend Double Dagger 11.1 4.4 63 8 5 64.4 97.18     Mainly Clear
20:00 Legend Double Dagger 9.3 4.5 72 21 4 64.4 97.32     LegendNANA
21:00 Legend Double Dagger 10.8 4.3 64 9 7 64.4 97.40     LegendNANA
22:00 Legend Double Dagger 9.4 2.7 63 36 3 64.4 97.47     Mostly Cloudy
23:00 Legend Double Dagger 8.4 3.7 72 30 3 64.4 97.54     LegendNANA

Notes on Data Quality.

Legend

  • E = Estimated
  • M = Missing
  • NA = Not Available
  • ‡ = Partner data that is not subject to review by the National Climate Archives
Date modified: